SCP
0 0 0 0 0 0 0 0 0 0 0 0 0 0 0 0 0 0 0 0 0 0 0 0 0 0 0 0 0 0 0 0 0 0 0 0 0 0 0 0 0 0 0 0
0 0 0 0 0 0 0 0 0 0 0 0 0 0 0 0 0 0 0 0 0 0 0 0 0 0 0 0 0 0 0 0 0 0 0 0 0 -0 0 0 0 0 0 0
0 0 0 0 0 0 0 0 0 0 0 0 0 0 0 0 0 0 0 0 0 0 0 0 0 0 0 0 0 0 0 0 0 0 0 0 0 0 0 0 0 0 0 0
0 0 0 0 0 0 0 0 0 0 0 0 0 0 0 0 0 0 0 0 0 0 0 0 0 0 0 0 0 0 0 0 0 0 0 0 0 0 0 0 0 0 0 0
0 0 0 0 0 0 0 0 0 0 0 0 0 0 0 0 0 0 0 0 0 0 0 0 0 0 0 0 0 0 0 0 0 0 0 0 0 0 0 0 0 0 -0 -0
0 0 0 0 0 0 0 0 0 0 0 0 0 0 0 0 0 0 0 0 0 0 0 0 0 0 0 0 0 0 0 0 0 0 0 -0 0 0 0 0 0 -0 -0 -0
0 0 0 0 0 0 0 0 0 0 0 0 0 0 0 0 0 0 0 0 0 0 0 0 0 0 0 0 0 0 0 0 0 -0 -0 -0 -0 0 0 0 -0 -0 -0 -0
0 0 0 0 0 0 0 0 0 0 0 0 0 0 0 0 0 0 0 0 0 0 0 0 0 0 0 0 0 0 0 0 -0 -0 -0 -0 -0 -0 -0 -0 -0 -0 -0 -0
0 0 0 0 0 0 0 0 0 0 0 0 0 0 0 0 0 0 0 0 0 0 0 0 0 0 0 0 0 0 0 0 0 -0 -0 -0 -0 0 0 0 0 -0 -0 0
0 0 0 0 0 0 0 0 0 0 0 0 0 0 0 0 0 0 0 0 0 0 0 0 0 0 0 0 0 0 0 0 0 0 0 0 0 0 0 0 0 0 0 0
0 0 0 0 0 0 0 0 0 0 0 0 0 0 0 0 0 0 0 0 0 0 0 0 0 0 0 0 0 0 0 0 0 0 0 0 0 0 0 0 0 0 0 0
0 0 0 0 0 0 0 0 0 0 0 0 0 0 0 0 0 0 0 0 0 0 0 0 0 0 0 0 0 0 0 0 0 0 0 0 0 0 0 0 0 0 0 0
0 0 0 0 0 0 0 0 0 0 0 0 0 0 0 0 0 0 0 0 0 0 0 0 0 0 0 0 0 -0 0 0 0 0 0 0 0 0 0 0 0 -0 0 -0
0 0 0 0 0 0 0 0 0 0 0 0 0 0 0 0 0 0 0 0 0 0 0 0 0 0 0 0 0 0 0 0 0 0 0 0 0 0 0 0 0 0 0 0
0 0 0 0 0 0 0 0 0 0 0 0 0 0 0 0 -0 0 0 0 0 0 0 0 0 -0 0 0 0 -0 0 0 0 0 0 0 0 0 0 0 0 0 0 0
0 0 0 0 0 0 0 0 0 0 0 0 0 0 0 0 0 0 0 0 0 0 0 0 0 0 -0 -0 0 0 0 0 0 0 0 -0 0 0 0 0 0 0 0 0
0 0 0 0 0 0 0 0 0 0 0 0 0 0 0 0 -0 0 0 0 0 0 0 0 0 0 0 0 -0 0 0 0 -0 0 0 0 0 0 0 0 0 0 0 0
0 0 0 0 0 0 0 0 0 0 0 0 0 0 -0 -0 -0 0 0 0 0 0 0 0 0 0 0 0 -0 0 -0 -0 0 0 0 0 0 0 0 0 0 0 0 0
0 0 0 0 0 0 0 0 0 0 0 0 0 0 0 0 -0 -0 -0 -0 0 -0 -0 0 0 0 0 -0 -0 -0 0 -0 -0 0 0 0 0 0 0 0 0 0 0 0
-0 0 0 0 0 0 0 0 0 0 0 0 0 0 0 -0 -0 -0 -0 -0 -0 0 0 0 0 0 0 0 0 0 0 0 0 0 0 0 0 0 0 0 0 0 0 0
-0 0 0 0 0 0 0 0 0 0 0 0 0 0 0 -0 -0 -0 0 -0 -0 -0 0 0 0 0 0 0 0 0 0 0 0 0 0 0 0 0 0 0 0 0 0 0
-0 0 0 0 0 0 0 0 0 0 0 0 0 0 -0 -0 0 0 0 0 -0 -0 0 0 0 0 0 0 0 0 0 0 0 0 0 0 0 0 0 0 0 0 0 0
0 0 0 0 0 0 0 0 0 0 0 0 0 0 -0 -0 0 0 0 0 0 0 0 0 0 0 0 0 0 0 -0 0 0 0 0 0 0 0 0 0 0 0 0 0
0 0 0 0 0 0 0 0 0 0 0 0 0 0 0 -0 0 0 0 0 0 0 0 0 0 0 0 0 0 0 -0 0 0 0 0 0 0 0 0 0 0 0 0 0
0 0 0 0 0 0 0 0 0 0 0 0 0 0 0 -0 0 0 0 0 0 0 0 0 0 0 0 0 -0 -0 0 0 0 0 0 0 0 0 0 0 0 0 0 0
0 0 0 0 0 0 0 0 0 0 0 0 0 0 0 0 0 0 0 -0 -0 -0 0 0 0 0 0 0 -0 -0 0 0 0 0 0 0 0 0 0 0 0 0 0 0
0 0 0 0 0 0 0 0 0 0 0 0 0 0 0 0 0 0 0 0 -0 0 0 0 0 0 0 0 -0 0 0 0 0 0 0 0 0 0 0 0 0 0 0 0
Wind_Speed_500mb
25 25 24 26 27 27 27 28 28 34 38 36 30 34 44 55 58 59 65 61 68 76 74 76 80 74 74 61 54 60 75 70 66 65 68 66 62 62 62 57 58 55 59 54
26 29 26 29 30 29 28 27 29 32 36 31 41 41 50 54 58 61 58 70 76 68 81 81 78 75 64 54 74 71 67 64 65 64 65 60 61 63 60 60 59 61 65 56
24 12 17 25 21 18 20 14 20 27 32 37 34 40 49 58 59 56 71 75 67 75 75 74 69 60 60 84 71 65 61 64 59 60 57 56 58 54 59 58 58 58 57 53
22 24 26 5 7 7 15 20 21 27 30 32 37 45 52 54 55 68 71 68 66 77 72 72 58 81 71 67 64 63 63 60 56 55 54 56 51 54 53 55 49 50 53 55
15 20 27 27 11 2 7 21 29 21 22 39 44 49 51 49 63 66 71 63 74 64 69 58 78 70 67 62 63 61 58 55 55 52 53 51 53 48 49 45 51 49 47 44
19 19 16 9 13 8 7 15 9 14 33 39 43 25 30 64 66 69 64 69 66 66 54 76 71 63 56 58 59 56 56 52 51 52 48 45 45 43 47 50 50 43 38 36
22 21 20 11 20 8 7 7 22 33 40 41 32 47 63 65 68 67 62 72 65 55 69 72 65 54 58 63 61 58 53 54 46 41 38 37 39 42 43 43 41 44 43 37
14 24 25 22 19 8 8 27 31 36 38 41 49 55 60 65 68 64 74 65 56 58 68 68 62 56 60 62 57 53 43 43 41 37 31 36 41 40 37 41 38 37 35 34
10 4 7 13 12 12 23 32 35 36 36 44 48 55 61 66 61 70 62 59 46 67 68 66 61 53 58 59 51 48 43 39 34 39 33 32 28 32 39 30 28 24 22 24
12 11 16 24 24 23 24 26 28 31 38 41 49 55 60 60 64 60 61 50 55 64 64 67 61 53 51 54 47 40 36 39 41 35 36 32 31 31 32 24 21 16 13 15
25 31 28 26 19 16 18 22 26 30 35 41 48 53 53 59 61 55 57 48 59 57 58 62 61 53 46 49 45 35 31 44 39 37 42 38 32 29 30 28 22 17 14 9
16 14 7 10 9 13 18 23 26 31 37 41 43 45 53 55 52 48 56 46 59 59 54 59 56 51 43 44 42 35 39 48 45 44 48 33 32 31 27 29 25 21 23 16
27 14 12 11 13 18 18 21 26 30 34 40 38 45 48 51 51 53 43 44 55 57 56 51 50 47 38 37 36 33 32 36 38 43 38 33 36 36 33 34 35 27 21 18
24 16 15 17 15 11 18 20 24 30 35 33 38 44 46 53 53 44 39 49 53 54 48 46 45 42 34 31 31 32 34 34 36 41 33 30 32 35 30 39 50 50 48 44
28 24 19 12 12 15 16 22 28 32 32 34 37 43 48 52 45 37 41 48 50 46 43 42 41 35 31 29 28 30 29 28 28 30 27 28 25 25 23 29 41 39 36 37
29 25 22 19 17 13 18 24 28 32 33 33 38 43 45 46 37 34 39 48 46 44 41 39 37 36 35 32 29 28 24 24 23 25 21 24 23 20 23 26 31 31 32 30
31 28 22 19 15 12 18 21 26 31 29 32 36 40 44 43 32 32 43 45 38 33 32 34 35 34 35 33 31 28 24 18 15 19 16 20 20 20 23 23 25 30 33 30
28 23 18 12 9 10 15 20 26 29 26 29 33 39 44 39 31 36 46 44 38 30 26 29 32 33 35 33 27 23 19 11 12 10 11 15 19 20 22 22 22 25 29 31
29 22 16 13 9 7 14 20 25 25 24 28 34 39 41 34 31 31 42 41 39 38 32 29 30 31 30 28 24 20 18 10 9 6 4 11 13 16 16 19 20 21 26 30
27 22 18 14 9 11 16 20 25 25 25 29 34 39 41 31 27 28 38 39 36 34 30 28 29 28 27 24 21 19 18 16 6 1 3 7 10 16 17 22 20 21 25 28
28 22 17 14 11 12 16 19 25 25 24 29 34 39 38 28 27 26 34 42 38 31 26 25 26 26 21 15 20 17 15 14 14 1 10 12 11 17 21 17 19 20 25 30
25 20 16 13 12 15 17 21 25 22 24 30 33 36 32 25 25 27 28 38 36 31 26 26 24 23 16 17 15 16 16 15 9 5 7 14 15 18 25 18 22 18 24 35
22 17 13 11 12 16 21 23 22 21 25 25 31 33 26 26 23 27 32 32 31 27 24 23 22 17 12 21 17 8 14 14 12 10 12 15 18 22 26 17 19 20 32 45
18 15 11 10 13 19 25 20 20 21 24 28 26 30 23 25 24 20 25 25 23 22 21 20 19 19 18 22 19 11 12 12 12 13 14 13 17 23 17 17 19 33 62 57
17 14 13 15 18 19 16 17 20 19 20 24 30 25 24 21 22 26 23 18 17 18 18 16 15 19 24 23 15 15 14 14 14 13 16 14 16 18 16 20 34 64 59 51
16 15 13 10 16 16 15 17 21 25 22 29 23 25 28 20 19 20 13 13 15 18 17 14 15 19 22 22 17 15 11 14 14 17 17 14 16 22 30 37 50 74 51 44
14 15 12 9 11 11 11 20 16 20 22 19 20 25 20 17 17 12 8 11 16 16 17 13 17 20 20 24 19 23 20 15 17 21 23 22 33 30 36 45 55 67 35 37
Wind_Direction_500mb
263 283 285 278 275 279 275 274 277 289 301 313 329 336 325 324 319 318 320 324 328 322 323 323 318 315 312 307 304 299 296 291 285 284 287 290 282 285 287 282 276 275 274 266
281 267 262 278 278 276 271 273 275 291 299 325 328 320 324 320 323 328 325 325 322 327 323 318 318 314 310 305 303 308 303 300 299 298 297 291 289 290 289 284 280 277 282 274
283 273 282 280 291 249 290 287 292 293 314 319 319 321 322 319 325 328 330 324 328 323 321 323 319 314 305 307 311 309 303 304 302 303 298 295 293 287 291 289 287 281 283 276
271 290 277 68 92 345 292 288 297 297 312 318 310 319 315 319 329 330 325 328 327 324 322 320 313 310 318 317 313 310 307 309 307 308 299 297 293 291 292 291 289 284 285 277
263 280 303 261 167 72 84 296 300 292 322 305 316 313 310 329 331 324 328 328 327 321 321 314 320 327 324 317 315 316 315 314 311 309 307 298 293 293 293 288 290 290 286 283
268 273 276 26 114 91 320 285 55 303 314 313 315 311 318 327 325 329 328 329 326 326 318 322 333 329 323 324 325 325 325 319 317 313 308 297 298 295 291 292 296 293 288 276
243 253 258 104 138 143 259 301 336 318 310 317 316 314 317 321 329 326 331 329 328 321 321 333 336 330 331 334 331 329 322 317 322 319 311 309 301 298 303 303 298 293 290 281
249 264 274 123 138 203 275 312 304 310 311 312 314 315 320 327 326 330 329 331 326 318 330 339 343 338 333 334 333 333 330 326 324 322 316 307 307 308 305 305 300 303 296 292
192 262 109 205 244 276 286 300 307 309 311 309 314 321 326 327 328 331 334 329 322 328 334 342 344 341 336 339 338 342 343 338 341 333 329 332 326 323 318 317 317 320 318 310
268 266 276 239 257 275 285 294 306 304 304 319 318 324 326 325 331 334 330 326 319 332 335 336 341 340 338 343 345 349 345 344 350 345 341 340 333 337 347 347 346 337 338 323
255 265 261 255 263 284 287 299 302 307 316 319 323 325 326 329 330 330 326 320 326 331 331 334 338 338 338 345 349 354 347 351 360 1 353 346 348 356 5 11 16 25 11 23
258 309 262 256 269 277 288 298 308 315 318 320 324 324 326 329 327 327 325 320 327 333 332 333 335 337 337 343 349 346 346 355 359 1 354 5 12 19 25 34 30 17 34 47
247 253 235 257 269 284 287 303 312 315 318 321 325 326 330 328 330 326 326 323 327 330 333 334 336 338 339 340 349 356 345 347 3 345 1 15 26 36 53 58 61 57 54 53
222 212 231 244 255 286 293 304 311 312 317 323 326 328 331 330 327 326 328 328 331 334 339 340 340 340 338 338 339 349 359 352 356 344 9 22 33 41 52 75 70 69 68 70
213 212 233 253 262 275 289 305 311 318 321 324 328 331 332 332 329 330 328 332 336 341 343 344 348 351 347 342 337 343 349 348 350 356 9 26 34 48 66 75 80 78 76 69
207 210 226 238 258 281 298 313 318 320 321 323 329 333 334 331 327 332 330 341 344 345 346 351 355 353 351 344 338 338 343 349 358 353 15 31 39 57 71 77 77 73 70 69
201 201 223 236 255 273 306 316 323 323 321 323 328 333 334 332 333 333 335 345 347 348 350 353 352 351 348 343 338 335 340 344 358 352 19 40 49 59 68 72 79 74 66 61
203 214 219 232 253 280 303 314 321 325 323 324 329 334 334 332 331 334 337 345 348 352 352 352 348 346 345 345 343 339 342 352 347 352 29 35 69 66 72 79 82 81 73 67
201 203 202 211 228 268 307 319 324 322 322 327 330 333 334 329 328 335 336 348 351 350 352 349 349 347 346 345 346 350 347 10 1 2 88 62 79 78 80 85 94 95 89 86
190 191 198 212 231 268 305 315 323 322 322 325 329 331 331 329 333 338 336 351 355 346 343 343 346 350 350 348 1 9 0 352 353 98 178 133 111 82 93 91 90 105 103 103
183 189 204 220 242 281 300 315 322 318 320 328 328 330 326 325 332 343 337 348 353 351 348 348 351 356 4 16 0 359 23 359 5 104 176 188 138 116 109 100 97 111 116 119
181 193 208 233 254 288 305 310 317 314 321 324 326 326 326 329 335 343 343 346 349 352 354 357 3 6 32 23 6 14 22 19 42 44 155 167 156 135 121 104 114 110 130 129
185 196 215 241 268 292 307 312 310 315 320 321 326 324 326 331 339 336 340 346 350 357 360 7 9 22 44 12 5 15 32 44 64 76 116 139 147 139 130 127 140 143 137 132
188 202 228 256 280 297 304 308 309 312 312 326 325 320 325 335 341 337 340 344 356 4 10 23 39 45 23 5 23 55 45 67 86 82 104 121 132 134 131 140 148 142 133 122
200 219 245 270 282 294 310 308 312 309 319 325 322 325 329 329 337 337 345 357 8 16 27 43 57 44 25 25 63 60 63 65 104 116 130 108 133 132 133 138 139 144 129 119
210 234 262 281 281 290 299 311 318 323 322 318 323 313 323 328 336 340 358 16 39 41 38 55 61 33 35 44 77 54 67 57 128 127 141 129 106 123 129 129 137 141 121 122
225 234 257 264 268 268 284 315 330 324 326 333 325 305 320 332 343 356 29 64 61 39 36 61 68 57 51 56 72 49 37 58 119 126 118 119 115 120 140 140 133 147 116 125
Wind_Speed_850mb
25 25 24 26 27 27 27 28 28 34 38 36 30 34 44 55 58 59 65 61 68 76 74 76 80 74 74 61 54 60 75 70 66 65 68 66 62 62 62 57 58 55 59 54
26 29 26 29 30 29 28 27 29 32 36 31 41 41 50 54 58 61 58 70 76 68 81 81 78 75 64 54 74 71 67 64 65 64 65 60 61 63 60 60 59 61 65 56
24 12 17 25 21 18 20 14 20 27 32 37 34 40 49 58 59 56 71 75 67 75 75 74 69 60 60 84 71 65 61 64 59 60 57 56 58 54 59 58 58 58 57 53
22 24 26 5 7 7 15 20 21 27 30 32 37 45 52 54 55 68 71 68 66 77 72 72 58 81 71 67 64 63 63 60 56 55 54 56 51 54 53 55 49 50 53 55
15 20 27 27 11 2 7 21 29 21 22 39 44 49 51 49 63 66 71 63 74 64 69 58 78 70 67 62 63 61 58 55 55 52 53 51 53 48 49 45 51 49 47 44
19 19 16 9 13 8 7 15 9 14 33 39 43 25 30 64 66 69 64 69 66 66 54 76 71 63 56 58 59 56 56 52 51 52 48 45 45 43 47 50 50 43 38 36
22 21 20 11 20 8 7 7 22 33 40 41 32 47 63 65 68 67 62 72 65 55 69 72 65 54 58 63 61 58 53 54 46 41 38 37 39 42 43 43 41 44 43 37
14 24 25 22 19 8 8 27 31 36 38 41 49 55 60 65 68 64 74 65 56 58 68 68 62 56 60 62 57 53 43 43 41 37 31 36 41 40 37 41 38 37 35 34
10 4 7 13 12 12 23 32 35 36 36 44 48 55 61 66 61 70 62 59 46 67 68 66 61 53 58 59 51 48 43 39 34 39 33 32 28 32 39 30 28 24 22 24
12 11 16 24 24 23 24 26 28 31 38 41 49 55 60 60 64 60 61 50 55 64 64 67 61 53 51 54 47 40 36 39 41 35 36 32 31 31 32 24 21 16 13 15
25 31 28 26 19 16 18 22 26 30 35 41 48 53 53 59 61 55 57 48 59 57 58 62 61 53 46 49 45 35 31 44 39 37 42 38 32 29 30 28 22 17 14 9
16 14 7 10 9 13 18 23 26 31 37 41 43 45 53 55 52 48 56 46 59 59 54 59 56 51 43 44 42 35 39 48 45 44 48 33 32 31 27 29 25 21 23 16
27 14 12 11 13 18 18 21 26 30 34 40 38 45 48 51 51 53 43 44 55 57 56 51 50 47 38 37 36 33 32 36 38 43 38 33 36 36 33 34 35 27 21 18
24 16 15 17 15 11 18 20 24 30 35 33 38 44 46 53 53 44 39 49 53 54 48 46 45 42 34 31 31 32 34 34 36 41 33 30 32 35 30 39 50 50 48 44
28 24 19 12 12 15 16 22 28 32 32 34 37 43 48 52 45 37 41 48 50 46 43 42 41 35 31 29 28 30 29 28 28 30 27 28 25 25 23 29 41 39 36 37
29 25 22 19 17 13 18 24 28 32 33 33 38 43 45 46 37 34 39 48 46 44 41 39 37 36 35 32 29 28 24 24 23 25 21 24 23 20 23 26 31 31 32 30
31 28 22 19 15 12 18 21 26 31 29 32 36 40 44 43 32 32 43 45 38 33 32 34 35 34 35 33 31 28 24 18 15 19 16 20 20 20 23 23 25 30 33 30
28 23 18 12 9 10 15 20 26 29 26 29 33 39 44 39 31 36 46 44 38 30 26 29 32 33 35 33 27 23 19 11 12 10 11 15 19 20 22 22 22 25 29 31
29 22 16 13 9 7 14 20 25 25 24 28 34 39 41 34 31 31 42 41 39 38 32 29 30 31 30 28 24 20 18 10 9 6 4 11 13 16 16 19 20 21 26 30
27 22 18 14 9 11 16 20 25 25 25 29 34 39 41 31 27 28 38 39 36 34 30 28 29 28 27 24 21 19 18 16 6 1 3 7 10 16 17 22 20 21 25 28
28 22 17 14 11 12 16 19 25 25 24 29 34 39 38 28 27 26 34 42 38 31 26 25 26 26 21 15 20 17 15 14 14 1 10 12 11 17 21 17 19 20 25 30
25 20 16 13 12 15 17 21 25 22 24 30 33 36 32 25 25 27 28 38 36 31 26 26 24 23 16 17 15 16 16 15 9 5 7 14 15 18 25 18 22 18 24 35
22 17 13 11 12 16 21 23 22 21 25 25 31 33 26 26 23 27 32 32 31 27 24 23 22 17 12 21 17 8 14 14 12 10 12 15 18 22 26 17 19 20 32 45
18 15 11 10 13 19 25 20 20 21 24 28 26 30 23 25 24 20 25 25 23 22 21 20 19 19 18 22 19 11 12 12 12 13 14 13 17 23 17 17 19 33 62 57
17 14 13 15 18 19 16 17 20 19 20 24 30 25 24 21 22 26 23 18 17 18 18 16 15 19 24 23 15 15 14 14 14 13 16 14 16 18 16 20 34 64 59 51
16 15 13 10 16 16 15 17 21 25 22 29 23 25 28 20 19 20 13 13 15 18 17 14 15 19 22 22 17 15 11 14 14 17 17 14 16 22 30 37 50 74 51 44
14 15 12 9 11 11 11 20 16 20 22 19 20 25 20 17 17 12 8 11 16 16 17 13 17 20 20 24 19 23 20 15 17 21 23 22 33 30 36 45 55 67 35 37
Wind_Direction_850mb
263 283 285 278 275 279 275 274 277 289 301 313 329 336 325 324 319 318 320 324 328 322 323 323 318 315 312 307 304 299 296 291 285 284 287 290 282 285 287 282 276 275 274 266
281 267 262 278 278 276 271 273 275 291 299 325 328 320 324 320 323 328 325 325 322 327 323 318 318 314 310 305 303 308 303 300 299 298 297 291 289 290 289 284 280 277 282 274
283 273 282 280 291 249 290 287 292 293 314 319 319 321 322 319 325 328 330 324 328 323 321 323 319 314 305 307 311 309 303 304 302 303 298 295 293 287 291 289 287 281 283 276
271 290 277 68 92 345 292 288 297 297 312 318 310 319 315 319 329 330 325 328 327 324 322 320 313 310 318 317 313 310 307 309 307 308 299 297 293 291 292 291 289 284 285 277
263 280 303 261 167 72 84 296 300 292 322 305 316 313 310 329 331 324 328 328 327 321 321 314 320 327 324 317 315 316 315 314 311 309 307 298 293 293 293 288 290 290 286 283
268 273 276 26 114 91 320 285 55 303 314 313 315 311 318 327 325 329 328 329 326 326 318 322 333 329 323 324 325 325 325 319 317 313 308 297 298 295 291 292 296 293 288 276
243 253 258 104 138 143 259 301 336 318 310 317 316 314 317 321 329 326 331 329 328 321 321 333 336 330 331 334 331 329 322 317 322 319 311 309 301 298 303 303 298 293 290 281
249 264 274 123 138 203 275 312 304 310 311 312 314 315 320 327 326 330 329 331 326 318 330 339 343 338 333 334 333 333 330 326 324 322 316 307 307 308 305 305 300 303 296 292
192 262 109 205 244 276 286 300 307 309 311 309 314 321 326 327 328 331 334 329 322 328 334 342 344 341 336 339 338 342 343 338 341 333 329 332 326 323 318 317 317 320 318 310
268 266 276 239 257 275 285 294 306 304 304 319 318 324 326 325 331 334 330 326 319 332 335 336 341 340 338 343 345 349 345 344 350 345 341 340 333 337 347 347 346 337 338 323
255 265 261 255 263 284 287 299 302 307 316 319 323 325 326 329 330 330 326 320 326 331 331 334 338 338 338 345 349 354 347 351 360 1 353 346 348 356 5 11 16 25 11 23
258 309 262 256 269 277 288 298 308 315 318 320 324 324 326 329 327 327 325 320 327 333 332 333 335 337 337 343 349 346 346 355 359 1 354 5 12 19 25 34 30 17 34 47
247 253 235 257 269 284 287 303 312 315 318 321 325 326 330 328 330 326 326 323 327 330 333 334 336 338 339 340 349 356 345 347 3 345 1 15 26 36 53 58 61 57 54 53
222 212 231 244 255 286 293 304 311 312 317 323 326 328 331 330 327 326 328 328 331 334 339 340 340 340 338 338 339 349 359 352 356 344 9 22 33 41 52 75 70 69 68 70
213 212 233 253 262 275 289 305 311 318 321 324 328 331 332 332 329 330 328 332 336 341 343 344 348 351 347 342 337 343 349 348 350 356 9 26 34 48 66 75 80 78 76 69
207 210 226 238 258 281 298 313 318 320 321 323 329 333 334 331 327 332 330 341 344 345 346 351 355 353 351 344 338 338 343 349 358 353 15 31 39 57 71 77 77 73 70 69
201 201 223 236 255 273 306 316 323 323 321 323 328 333 334 332 333 333 335 345 347 348 350 353 352 351 348 343 338 335 340 344 358 352 19 40 49 59 68 72 79 74 66 61
203 214 219 232 253 280 303 314 321 325 323 324 329 334 334 332 331 334 337 345 348 352 352 352 348 346 345 345 343 339 342 352 347 352 29 35 69 66 72 79 82 81 73 67
201 203 202 211 228 268 307 319 324 322 322 327 330 333 334 329 328 335 336 348 351 350 352 349 349 347 346 345 346 350 347 10 1 2 88 62 79 78 80 85 94 95 89 86
190 191 198 212 231 268 305 315 323 322 322 325 329 331 331 329 333 338 336 351 355 346 343 343 346 350 350 348 1 9 0 352 353 98 178 133 111 82 93 91 90 105 103 103
183 189 204 220 242 281 300 315 322 318 320 328 328 330 326 325 332 343 337 348 353 351 348 348 351 356 4 16 0 359 23 359 5 104 176 188 138 116 109 100 97 111 116 119
181 193 208 233 254 288 305 310 317 314 321 324 326 326 326 329 335 343 343 346 349 352 354 357 3 6 32 23 6 14 22 19 42 44 155 167 156 135 121 104 114 110 130 129
185 196 215 241 268 292 307 312 310 315 320 321 326 324 326 331 339 336 340 346 350 357 360 7 9 22 44 12 5 15 32 44 64 76 116 139 147 139 130 127 140 143 137 132
188 202 228 256 280 297 304 308 309 312 312 326 325 320 325 335 341 337 340 344 356 4 10 23 39 45 23 5 23 55 45 67 86 82 104 121 132 134 131 140 148 142 133 122
200 219 245 270 282 294 310 308 312 309 319 325 322 325 329 329 337 337 345 357 8 16 27 43 57 44 25 25 63 60 63 65 104 116 130 108 133 132 133 138 139 144 129 119
210 234 262 281 281 290 299 311 318 323 322 318 323 313 323 328 336 340 358 16 39 41 38 55 61 33 35 44 77 54 67 57 128 127 141 129 106 123 129 129 137 141 121 122
225 234 257 264 268 268 284 315 330 324 326 333 325 305 320 332 343 356 29 64 61 39 36 61 68 57 51 56 72 49 37 58 119 126 118 119 115 120 140 140 133 147 116 125